Weather History for Pinedale, WY

Change the Weather History Date:

Friday, September 6, 2013

  Actual Average (KBPI) Record (KBPI)
Temperature  
Mean Temperature 61 °F 53 °F  
Max Temperature 78 °F 72 °F 83 °F (1979)
Min Temperature 44 °F 35 °F 19 °F (1996)
Degree Days  
Heating Degree Days 4 12  
Month to date heating degree days 65  
Since 1 July heating degree days 358  
Cooling Degree Days 0 0  
Month to date cooling degree days 0  
Year to date cooling degree days 35  
Growing Degree Days 11 (Base 50)    
Moisture  
Dew Point 45 °F    
Average Humidity 59    
Maximum Humidity 87    
Minimum Humidity 24    
Precipitation  
Precipitation 0.00 in 0.03 in 0.03 in (2011)
Month to date precipitation 0.16  
Year to date precipitation 4.82  
Sea Level Pressure  
Sea Level Pressure 30.33 in    
Wind  
Wind Speed 5 mph (WNW)    
Max Wind Speed 18 mph    
Max Gust Speed 25 mph    
Visibility 10 miles    
Events Rain , Thunderstorm    
T = Trace of Precipitation, MM = Missing Value Source: NWS Daily Summary

Daily Weather History Graph

Daily Weather History Graph

Search for Another Location

Airport:

Trip Planner

Search our weather history database for the weather conditions in past years. The results will help you decide how hot, cold, wet, or windy it might be!

Date:

Astronomy

Sep. 06, 2013 Rise Set
Actual Time 6:49 AM MDT 7:44 PM MDT
Civil Twilight 6:20 AM MDT 8:13 PM MDT
Nautical Twilight 5:46 AM MDT 8:47 PM MDT
Astronomical Twilight 5:10 AM MDT 9:22 PM MDT
Moon 8:08 AM MDT (9/6) 8:06 PM MDT (9/6)
Length of Visible Light 13h 52m
Length of Day
12h 54m
New Moon, 2% of the Moon is Illuminated
Sep 6
New Moon
Sep 12
First Quarter
Sep 19
Full
Sep 26
Last Quarter
Oct 4
New

Hourly Weather History & Observations

Time (MDT) Temp. Windchill Dew Point Humidity Pressure Visibility Wind Dir Wind Speed Gust Speed Precip Events Conditions
12:15 AM 59.0 °F - 44.6 °F 59% 30.33 in 10.0 mi NW 5.8 mph - N/A   Scattered Clouds
12:35 AM 57.2 °F - 44.6 °F 63% 30.33 in 10.0 mi WNW 5.8 mph - N/A   Scattered Clouds
12:55 AM 55.4 °F - 44.6 °F 67% 30.33 in 10.0 mi WNW 4.6 mph - N/A   Scattered Clouds
1:15 AM 53.6 °F - 44.6 °F 72% 30.34 in 10.0 mi Calm Calm - N/A   Clear
1:35 AM 51.8 °F - 42.8 °F 71% 30.34 in 10.0 mi WNW 4.6 mph - N/A   Clear
1:55 AM 51.8 °F - 42.8 °F 71% 30.34 in 10.0 mi WNW 5.8 mph - N/A   Clear
2:15 AM 51.8 °F - 42.8 °F 71% 30.34 in 10.0 mi NW 3.5 mph - N/A   Clear
2:35 AM 51.8 °F - 42.8 °F 71% 30.34 in 10.0 mi Calm Calm - N/A   Clear
2:55 AM 50.0 °F - 42.8 °F 76% 30.34 in 10.0 mi WNW 5.8 mph - N/A   Mostly Cloudy
3:15 AM 50.0 °F - 42.8 °F 76% 30.34 in 10.0 mi West 4.6 mph - N/A   Scattered Clouds
3:35 AM 50.0 °F - 42.8 °F 76% 30.34 in 10.0 mi WNW 4.6 mph - N/A   Clear
3:55 AM 50.0 °F - 42.8 °F 76% 30.35 in 10.0 mi West 5.8 mph - N/A   Clear
4:15 AM 50.0 °F - 42.8 °F 76% 30.35 in 10.0 mi NW 4.6 mph - N/A   Clear
4:35 AM 48.2 °F - 42.8 °F 82% 30.35 in 10.0 mi Calm Calm - N/A   Clear
4:55 AM 46.4 °F 43.5 °F 41.0 °F 81% 30.35 in 10.0 mi West 5.8 mph - N/A   Clear
5:15 AM 44.6 °F 42.2 °F 41.0 °F 87% 30.35 in 10.0 mi WNW 4.6 mph - N/A   Clear
5:35 AM 46.4 °F - 42.8 °F 87% 30.35 in 10.0 mi Calm Calm - N/A   Clear
5:55 AM 46.4 °F 44.3 °F 41.0 °F 81% 30.35 in 10.0 mi West 4.6 mph - N/A   Scattered Clouds
6:15 AM 48.2 °F - 42.8 °F 82% 30.36 in 10.0 mi NW 6.9 mph - N/A   Scattered Clouds
6:35 AM 48.2 °F - 42.8 °F 82% 30.35 in 10.0 mi Calm Calm - N/A   Scattered Clouds
6:55 AM 48.2 °F - 42.8 °F 82% 30.36 in 10.0 mi West 3.5 mph - N/A   Scattered Clouds
7:15 AM 51.8 °F - 42.8 °F 71% 30.36 in 10.0 mi WNW 3.5 mph - N/A   Scattered Clouds
7:35 AM 51.8 °F - 44.6 °F 76% 30.37 in 10.0 mi Calm Calm - N/A   Scattered Clouds
7:55 AM 53.6 °F - 44.6 °F 72% 30.37 in 10.0 mi Calm Calm - N/A   Clear
8:15 AM 59.0 °F - 44.6 °F 59% 30.37 in 10.0 mi Calm Calm - N/A   Scattered Clouds
8:35 AM 60.8 °F - 42.8 °F 52% 30.37 in 10.0 mi Calm Calm - N/A   Clear
8:55 AM 60.8 °F - 46.4 °F 59% 30.38 in 2.5 mi North 3.5 mph - N/A Rain Rain
9:15 AM 55.4 °F - 50.0 °F 82% 30.42 in 10.0 mi SSW 4.6 mph - N/A   Overcast
9:35 AM 59.0 °F - 50.0 °F 72% 30.42 in 10.0 mi Calm Calm - N/A Rain Light Rain
9:55 AM 59.0 °F - 50.0 °F 72% 30.42 in 10.0 mi North 8.1 mph - N/A Rain Light Rain
10:15 AM 60.8 °F - 51.8 °F 72% 30.42 in 10.0 mi NNE 8.1 mph - N/A   Mostly Cloudy
10:35 AM 62.6 °F - 51.8 °F 68% 30.42 in 10.0 mi ENE 4.6 mph - N/A   Mostly Cloudy
10:55 AM 62.6 °F - 50.0 °F 63% 30.42 in 10.0 mi SE 6.9 mph - N/A   Mostly Cloudy
11:35 AM 62.6 °F - 51.8 °F 68% 30.41 in 10.0 mi Calm Calm - N/A   Overcast
11:55 AM 60.8 °F - 53.6 °F 77% 30.43 in 10.0 mi SE 10.4 mph - N/A   Overcast
12:15 PM 60.8 °F - 51.8 °F 72% 30.42 in 10.0 mi ESE 10.4 mph - N/A   Overcast
12:35 PM 59.0 °F - 51.8 °F 77% 30.40 in 7.0 mi East 13.8 mph - N/A Rain Light Rain
12:55 PM 62.6 °F - 51.8 °F 68% 30.37 in 10.0 mi NE 13.8 mph - N/A   Mostly Cloudy
1:15 PM 69.8 °F - 50.0 °F 49% 30.36 in 10.0 mi ENE 12.7 mph - N/A   Scattered Clouds
1:35 PM 71.6 °F - 44.6 °F 38% 30.36 in 10.0 mi ENE 9.2 mph - N/A   Clear
1:55 PM 73.4 °F - 44.6 °F 36% 30.35 in 10.0 mi South 4.6 mph - N/A   Clear
2:15 PM 73.4 °F - 42.8 °F 33% 30.34 in 10.0 mi Calm Calm - N/A   Clear
2:35 PM 77.0 °F - 42.8 °F 29% 30.33 in 10.0 mi Calm Calm - N/A   Clear
2:55 PM 77.0 °F - 41.0 °F 28% 30.32 in 10.0 mi Calm Calm - N/A   Clear
3:15 PM 77.0 °F - 41.0 °F 28% 30.31 in 10.0 mi Calm Calm - N/A   Clear
3:35 PM 78.8 °F - 41.0 °F 26% 30.30 in 10.0 mi Calm Calm - N/A   Clear
3:55 PM 77.0 °F - 41.0 °F 28% 30.29 in 10.0 mi Calm Calm - N/A   Clear
4:15 PM 78.8 °F - 41.0 °F 26% 30.29 in 10.0 mi ESE 4.6 mph - N/A   Scattered Clouds
4:35 PM 77.0 °F - 39.2 °F 26% 30.27 in 10.0 mi SW 3.5 mph - N/A   Clear
4:55 PM 78.8 °F - 41.0 °F 26% 30.27 in 10.0 mi East 4.6 mph - N/A   Clear
5:15 PM 78.8 °F - 41.0 °F 26% 30.26 in 10.0 mi SE 3.5 mph - N/A   Clear
5:35 PM 78.8 °F - 39.2 °F 24% 30.25 in 10.0 mi SSE 6.9 mph - N/A   Clear
5:55 PM 78.8 °F - 39.2 °F 24% 30.25 in 10.0 mi SE 4.6 mph - N/A   Scattered Clouds
6:15 PM 77.0 °F - 42.8 °F 29% 30.24 in 10.0 mi SSE 3.5 mph - N/A   Mostly Cloudy
6:35 PM 75.2 °F - 42.8 °F 31% 30.25 in 10.0 mi SW 6.9 mph - N/A   Mostly Cloudy
6:55 PM 71.6 °F - 42.8 °F 35% 30.25 in 10.0 mi WNW 12.7 mph 17.3 mph N/A   Overcast
7:15 PM 69.8 °F - 44.6 °F 40% 30.26 in 10.0 mi West 9.2 mph - N/A   Overcast
7:35 PM 68.0 °F - 44.6 °F 43% 30.27 in 10.0 mi NW 13.8 mph 19.6 mph N/A   Overcast
7:55 PM 66.2 °F - 46.4 °F 49% 30.27 in 10.0 mi NW 12.7 mph - N/A   Mostly Cloudy
8:15 PM 64.4 °F - 48.2 °F 56% 30.27 in 10.0 mi WNW 13.8 mph - N/A   Scattered Clouds
8:35 PM 62.6 °F - 50.0 °F 63% 30.27 in 10.0 mi WNW 12.7 mph - N/A   Scattered Clouds
8:55 PM 62.6 °F - 46.4 °F 55% 30.29 in 10.0 mi NW 13.8 mph 17.3 mph N/A   Scattered Clouds
9:15 PM 64.4 °F - 44.6 °F 49% 30.29 in 10.0 mi NW 18.4 mph 25.3 mph N/A   Scattered Clouds
9:35 PM 62.6 °F - 46.4 °F 55% 30.29 in 10.0 mi WNW 16.1 mph 20.7 mph N/A   Scattered Clouds
9:55 PM 62.6 °F - 46.4 °F 55% 30.29 in 10.0 mi West 12.7 mph 21.9 mph N/A   Mostly Cloudy
10:15 PM 62.6 °F - 46.4 °F 55% 30.29 in 10.0 mi WNW 12.7 mph - N/A   Mostly Cloudy
10:35 PM 60.8 °F - 48.2 °F 63% 30.30 in 10.0 mi WNW 12.7 mph - N/A   Overcast
10:55 PM 59.0 °F - 51.8 °F 77% 30.31 in 10.0 mi WNW 9.2 mph - N/A Rain , Thunderstorm Light Thunderstorms and Rain
11:15 PM 57.2 °F - 51.8 °F 82% 30.31 in 10.0 mi WNW 10.4 mph - N/A Thunderstorm Overcast
11:35 PM 55.4 °F - 50.0 °F 82% 30.31 in 10.0 mi West 11.5 mph - N/A   Overcast
11:55 PM 57.2 °F - 50.0 °F 77% 30.31 in 10.0 mi West 8.1 mph - N/A   Overcast